CW3081 Weather Reports


Display with metric or nautical units.
time (UTC)temp
F
wind
direction
speed
MPH
gust
MPH
rain 1hr
in
rain 24hr
in
rain mn
in
humidity
%
barometer
mb
20260509150042 65 281 0.0 2.0 0.00 0.00 0.00 79 1010.8
20260509144544 64 252 0.0 1.0 0.00 0.00 0.00 81 1010.7
20260509143040 64 30 0.0 3.0 0.00 0.00 0.00 82 1010.6
20260509141550 63 281 1.0 3.0 0.00 0.00 0.00 83 1010.5
20260509140119 62 284 0.0 2.0 0.00 0.00 0.00 84 1010.5
20260509134551 61 282 1.0 3.0 0.00 0.00 0.00 85 1010.6
20260509133057 61 202 0.0 3.0 0.00 0.00 0.00 86 1010.3
20260509131549 60 262 1.0 2.0 0.00 0.00 0.00 87 1010.5
20260509130047 59 237 0.0 1.0 0.00 0.00 0.00 88 1010.5
20260509124547 58 240 0.0 1.0 0.00 0.00 0.00 91 1010.4
20260509123050 0 0.0 0.0 0.00 0.00 0.00 1010.5
20260509121541 0 0.0 0.0 0.00 0.00 0.00 1010.6
20260509120042 0 0.0 0.0 0.00 0.00 0.00 1010.2
20260509114552 0 0.0 0.0 0.00 0.00 0.00 1009.7
20260509113047 0 0.0 0.0 0.00 0.00 0.00 1009.5
20260509111543 0 0.0 0.0 0.00 0.00 0.00 1009.4
20260509110045 0 0.0 0.0 0.00 0.00 0.00 1009.4
20260509104552 0 0 0.0 0.0 0.00 0.00 0.00 1009.4
20260509103048 54 0 0.0 0.0 0.00 0.00 0.00 91 1009.4
20260509101546 54 0 0.0 1.0 0.00 0.00 0.00 91 1009.2
20260509100100 54 0 0.0 0.0 0.00 0.00 0.00 90 1009.4
20260509094542 54 0 0.0 1.0 0.00 0.00 0.00 90 1009.7
20260509093048 54 0 0.0 1.0 0.00 0.00 0.00 89 1009.8
20260509091549 54 0 0.0 0.0 0.00 0.00 0.00 88 1009.9
20260509090047 55 0 0.0 1.0 0.00 0.00 0.00 88 1009.7
20260509084548 55 0 0.0 1.0 0.00 0.00 0.00 88 1009.9
20260509083049 54 0 0.0 1.0 0.00 0.00 0.00 87 1009.5
20260509081550 54 0 0.0 0.0 0.00 0.00 0.00 87 1010.0
20260509080105 54 0 0.0 0.0 0.00 0.00 0.00 88 1009.7
20260509074546 54 0 0.0 0.0 0.00 0.00 0.00 88 1009.7
20260509073135 54 0 0.0 0.0 0.00 0.00 0.00 87 1009.3
20260509071545 54 0 0.0 0.0 0.00 0.00 0.00 87 1009.6
20260509070051 54 0 0.0 0.0 0.00 0.00 0.00 86 1009.9
20260509064549 54 0 0.0 0.0 0.00 0.00 0.00 84 1010.0
20260509063046 55 0 0.0 0.0 0.00 0.00 0.00 83 1010.2
20260509061552 56 0 0.0 0.0 0.00 0.00 0.00 81 1010.6
20260509060050 56 0 0.0 0.0 0.00 0.00 0.00 80 1010.7
20260509054549 57 0 0.0 0.0 0.00 0.00 0.00 79 1010.8
20260509053052 57 0 0.0 1.0 0.00 0.00 0.00 78 1010.8
20260509051556 58 0 0.0 1.0 0.00 0.00 0.00 76 1010.8
20260509050045 58 0 0.0 0.0 0.00 0.00 0.00 75 1010.4
20260509044546 59 0 0.0 0.0 0.00 0.00 0.00 74 1010.7
20260509043051 59 0 0.0 1.0 0.00 0.00 0.00 72 1010.6
20260509041542 59 223 0.0 1.0 0.00 0.00 0.00 71 1010.6
20260509040057 60 0 0.0 0.0 0.00 0.00 0.00 70 1010.8
20260509034539 60 0 0.0 0.0 0.00 0.00 0.00 68 1010.8
20260509033042 60 0 0.0 0.0 0.00 0.00 0.00 67 1010.8
20260509031549 61 0 0.0 0.0 0.00 0.00 0.00 66 1010.9
20260509030050 61 0 0.0 0.0 0.00 0.00 0.00 65 1011.1
20260509024545 61 189 0.0 0.0 0.00 0.00 0.00 64 1011.0
20260509023041 62 0 0.0 0.0 0.00 0.00 0.00 63 1010.8
20260509021548 62 189 0.0 0.0 0.00 0.00 0.00 62 1010.9
20260509020047 62 0 0.0 0.0 0.00 0.00 0.00 62 1010.9
20260509014543 62 0 0.0 0.0 0.00 0.00 0.00 63 1010.9
20260509013100 62 0 0.0 0.0 0.00 0.00 0.00 65 1010.7
20260509011554 62 0 0.0 0.0 0.00 0.00 0.00 66 1010.7
20260509010044 63 0 0.0 0.0 0.00 0.00 0.00 65 1010.7
20260509004605 65 0 0.0 0.0 0.00 0.00 0.00 62 1010.7
20260509003051 66 0 0.0 0.0 0.00 0.00 0.00 56 1010.8
20260509001546 68 0 0.0 0.0 0.00 0.00 0.00 55 1010.7
20260509000047 69 186 0.0 1.0 0.00 0.00 0.00 52 1010.8
20260508234549 70 0 0.0 0.0 0.00 0.00 0.00 48 1010.9
20260508233051 70 0 0.0 0.0 0.00 0.00 0.00 45 1011.1
20260508231543 71 186 0.0 1.0 0.00 0.00 0.00 44 1011.0
20260508230056 71 184 0.0 2.0 0.00 0.00 0.00 45 1011.1
20260508224547 71 193 1.0 2.0 0.00 0.00 0.00 42 1011.1
20260508223046 71 0 0.0 3.0 0.00 0.00 0.00 43 1011.1
20260508221550 72 236 0.0 1.0 0.00 0.00 0.00 41 1011.2
20260508220050 72 0 0.0 2.0 0.00 0.00 0.00 42 1011.4
20260508214549 72 218 1.0 2.0 0.00 0.00 0.00 40 1011.4
20260508213045 72 262 1.0 2.0 0.00 0.00 0.00 41 1011.6
20260508211544 72 195 0.0 2.0 0.00 0.00 0.00 41 1011.4
20260508210055 72 153 1.0 2.0 0.00 0.00 0.00 41 1011.6
20260508204552 72 160 1.0 2.0 0.00 0.00 0.00 40 1011.7
20260508203042 72 143 0.0 2.0 0.00 0.00 0.00 41 1012.0
20260508201546 72 157 1.0 3.0 0.00 0.00 0.00 39 1012.2
20260508200049 72 153 0.0 2.0 0.00 0.00 0.00 39 1012.6
20260508194548 71 250 1.0 3.0 0.00 0.00 0.00 41 1012.8
20260508193050 72 224 0.0 3.0 0.00 0.00 0.00 40 1013.0
20260508191546 72 152 1.0 3.0 0.00 0.00 0.00 41 1013.1
20260508190055 72 0 0.0 2.0 0.00 0.00 0.00 42 1013.5
20260508184600 72 141 1.0 3.0 0.00 0.00 0.00 39 1013.6
20260508183044 72 259 0.0 3.0 0.00 0.00 0.00 39 1013.6
20260508181555 72 184 1.0 2.0 0.00 0.00 0.00 39 1014.1
20260508180050 71 167 0.0 3.0 0.00 0.00 0.00 42 1014.5
20260508174547 70 181 0.0 2.0 0.00 0.00 0.00 44 1014.6
20260508173050 70 250 1.0 2.0 0.00 0.00 0.00 40 1015.1
20260508171545 69 146 1.0 2.0 0.00 0.00 0.00 41 1015.2
20260508170043 68 252 0.0 2.0 0.00 0.00 0.00 43 1015.6
20260508164555 67 154 0.0 3.0 0.00 0.00 0.00 48 1015.7
20260508163038 67 248 0.0 1.0 0.00 0.00 0.00 47 1015.9
20260508161551 66 203 0.0 2.0 0.00 0.00 0.00 47 1016.2
20260508160041 65 255 0.0 2.0 0.00 0.00 0.00 49 1016.4
20260508154550 64 0 0.0 2.0 0.00 0.00 0.00 51 1016.7
20260508153048 64 220 0.0 2.0 0.00 0.00 0.00 53 1016.9
20260508151546 63 194 0.0 2.0 0.00 0.00 0.00 60 1016.8